Regional Weather Roundup
Issued by NWS

Home | Current Version | Previous Version | Text Only | Print | Product List | Glossary On
Versions: 1 2 3 4 5 6 7 8 9 10 11 12 13 14 15 16 17 18 19 20 21 22 23 24 25 26 27 28 29 30 31 32 33 34 35 36 37 38 39 40 41 42 43 44 45 46 47 48 49 50
000
ASUS46 KPQR 180410
RWROR

OREGON REGIONAL WEATHER ROUNDUP
NATIONAL WEATHER SERVICE PORTLAND OR
800 PM PST WED DEC 17 2014

NOTE: "FAIR" INDICATES FEW OR NO CLOUDS BELOW 12,000 FEET WITH
NO SIGNIFICANT WEATHER AND/OR OBSTRUCTIONS TO VISIBILITY.

ORZ001>013-180500-
NORTHWEST OREGON


CITY           SKY/WX    TMP DP  RH WIND       PRES   REMARKS
ASTORIA        CLOUDY    46  44  93 E3        29.90R
NEWPORT        DRIZZLE   46  46 100 S7        29.98R
PORTLAND       MOCLDY    44  41  89 E13       29.94R
VANCOUVER WA   CLOUDY    44  40  85 SE8       29.94R
SCAPPOOSE      LGT RAIN  43  41  93 SW3       29.93R FOG
HILLSBORO      CLOUDY    44  44 100 CALM      29.93R FOG
AURORA         CLOUDY    49  44  83 S15G22    29.95R
MCMINNVILLE    CLOUDY    47  44  90 SW7       29.95R
SALEM          LGT RAIN  49  44  83 SW8       29.96R
CORVALLIS      CLOUDY    50  45  81 S3        29.98R
EUGENE         CLOUDY    47  45  93 S5        29.98R
$$

ORZ021-028-180500-
SOUTHWEST OREGON


CITY           SKY/WX    TMP DP  RH WIND       PRES   REMARKS
NORTH BEND     CLOUDY    48  48 100 SE5       29.97S
BROOKINGS      CLOUDY    48  48 100 E8        29.95R
ROSEBURG       LGT RAIN  47  45  93 CALM      29.97R
SEXTON SUMMIT  CLOUDY    35  35 100 SE9       29.91S FOG     WCI  28
MEDFORD        LGT RAIN  46  44  93 CALM      29.96R
$$

ORZ014>016-041-180500-
COLUMBIA GORGE


CITY           SKY/WX    TMP DP  RH WIND       PRES   REMARKS
TROUTDALE      MOCLDY    44  38  79 E7        29.95R
THE DALLES     CLOUDY    40  38  93 CALM      30.02R FOG
$$

ORZ029>031-041-044-049-050-061>064-502-503-505>511-180500-
EASTERN OREGON


CITY           SKY/WX    TMP DP  RH WIND       PRES   REMARKS
REDMOND        CLOUDY    34  33  96 CALM      29.94R
BEND           MOCLDY    34  32  93 CALM      29.95R
PRINEVILLE     CLOUDY    34  34 100 CALM      29.95R
KLAMATH FALLS  CLOUDY    37  33  85 S6        29.96R WCI  32
LAKEVIEW       CLOUDY    36  32  87 SE8       29.99R WCI  29
HERMISTON      LGT RAIN  39  36  89 S5        30.00R FOG
PENDLETON      LGT RAIN  35  35 100 CALM      29.97S FOG
JOHN DAY       CLOUDY    40  35  80 E7        29.95R
MEACHAM        CLOUDY    36  31  82 CALM      29.92R
LA GRANDE      CLOUDY    41  27  56 S10       29.94S
BAKER CITY     CLOUDY    34  30  85 E13       29.97S WCI  25
BURNS          LGT RAIN  33  31  92 CALM      29.97R
ROME             N/A     27  25  92 S3        29.97R
ONTARIO        CLOUDY    36  33  89 SW5       30.04R WCI  32
$$


USA.gov is the U.S. government's official web portal to all federal, state and local government web resources and services.